Regional Weather Roundup
Issued by NWS

Home | Current Version | Previous Version | Text Only | Print | Product List | Glossary On
Versions: 1 2 3 4 5 6 7 8 9 10 11 12 13 14 15 16 17 18 19 20 21 22 23 24 25 26 27 28 29 30 31 32 33 34 35 36 37 38 39 40 41 42 43 44 45 46 47 48 49 50
653
ASHW40 PHFO 261212
RWRHI

WEATHER ROUNDUP FOR HAWAII
NATIONAL WEATHER SERVICE HONOLULU HI
200 AM HST TUE JUL 26 2016

THIS IS AN AUTOMATED REPORT THAT HAS NOT BEEN QUALITY CONTROLLED.

NOTE..."FAIR" INDICATES FEW OR NO CLOUDS BELOW 12,000 FEET WITH NO
SIGNIFICANT WEATHER AND/OR OBSTRUCTIONS TO VISIBILITY.

* - THESE SITES REPORT LIMITED FIELDS

HIZ001>004-261300-
KAUAI-NIIHAU-

CITY           SKY/WX    TMP DP  RH WIND       PRES   REMARKS
LIHUE APT      CLOUDY    79  76  90 NE8       30.00F
PORT ALLEN*      N/A     77 N/A N/A E7          N/A
POIPU*           N/A     77 N/A N/A NE2         N/A
PRINCEVILLE*     N/A     75 N/A N/A S1          N/A
KOKOLE POINT*  NOT AVBL
MOLOAA DAIRY*    N/A     77  75  94 E3G12       N/A
WAIMEA HTS*    NOT AVBL
PUU OPAE*      NOT AVBL
PUU LUA*       NOT AVBL
MAKAHA RIDGE*  NOT AVBL
$$

HIZ005>011-261300-
OAHU-

CITY           SKY/WX    TMP DP  RH WIND       PRES   REMARKS
HONOLULU       PTCLDY    73  69  87 NE6       29.99F
KALAELOA       CLEAR     75  69  81 NE5       30.00F
KANEOHE MCB    MOCLDY    79  73  82 CALM      29.97F
WHEELER FIELD  FAIR      70  68  94 CALM      30.01F
BELLOWS*       NOT AVBL
KAHUKU*        NOT AVBL
WHEELER*       NOT AVBL
WAIANAE HARBOR NOT AVBL
DILLINGHAM*      N/A     72  68  88 MISG        N/A
KAHUKU TRN*      N/A     90  88  94 NW3G15      N/A  HX 124
KAWAILOA*        N/A     72  63  73 E6G12       N/A
KII*             N/A     79  73  83 SE8G20      N/A
MAKUA RANGE*     N/A     73  70  88 NW6         N/A
OAHU FOREST NW NOT AVBL
SCHOFIELD BRK*   N/A     84  82  94 MISG        N/A  HX 101
SCHOFIELD S*   NOT AVBL
WAIANAE VLY*   NOT AVBL
KUAOKALA*      NOT AVBL
HONOULIUULI*   NOT AVBL
MOKUOLOE IS*   NOT AVBL
PALEHUA*       NOT AVBL
WAIAWA PHB*    NOT AVBL
$$

HIZ012>013-261300-
MOLOKAI-

CITY           SKY/WX    TMP DP  RH WIND       PRES   REMARKS
MOLOKAI AIRPT  CLEAR     74  68  81 NE7       30.00F
KALAUPAPA      NOT AVBL
MAKAPULAPAI*   NOT AVBL
MOLOKAI 1*     NOT AVBL
PUU ALII*      NOT AVBL
$$

HIZ016-261300-
KAHOOLAWE-

CITY           SKY/WX    TMP DP  RH WIND       PRES   REMARKS
KAHOOLAWE*     NOT AVBL
HAKIOAWA*      NOT AVBL
HONOKANAIA*      N/A     77  69  77 NE9G22    29.94F
KANELOA*         N/A     73  68  83 E15G24    30.06F
KEALIALALO*    NOT AVBL
LUA MAKIKA*    NOT AVBL
$$

HIZ014>015-261300-
LANAI-

CITY           SKY/WX    TMP DP  RH WIND       PRES   REMARKS
LANAI CITY     FAIR      71  68  90 N6        30.05F
LANAI 1*       NOT AVBL
$$

HIZ017>028-261300-
MAUI-

CITY           SKY/WX    TMP DP  RH WIND       PRES   REMARKS
KAHULUI        CLEAR     73  69  87 NE3       29.98F
KAPALUA-W MAUI NOT AVBL
HANA AIRPORT     N/A     75  72  88 SE3       30.03S
HANA*            N/A     75 N/A N/A S3          N/A
HALEAKALA SUMM   N/A     50  23  34 E30         N/A
MAALAEA BAY*   NOT AVBL
HALEAKALA*     NOT AVBL
KAUPO GAP*     NOT AVBL
KULA 1*          N/A    N/A N/A N/A SE14G26     N/A
$$

HIZ023>026-261300-
BIG ISLAND OF HAWAII COAST AND LOWER SLOPES-

CITY           SKY/WX    TMP DP  RH WIND       PRES   REMARKS
KAILUA KONA    CLOUDY    81  74  79 CALM      29.94F
HILO           MOCLDY    73  66  78 W8        30.01F
HONOKAA*         N/A     68 N/A N/A VRB1        N/A
KAWAIHAE MWT*    N/A     81 N/A N/A NE6         N/A
KAWAIHAE*      NOT AVBL
SOUTH POINT*     N/A     72 N/A N/A N15G22      N/A
UPOLU AIRPORT*   N/A    N/A N/A N/A E8          N/A
KAMUELA*       PTSUNNY   61  61 100 E7        30.09S
HAKALAU*         N/A    N/A N/A N/A SW7G13      N/A
KALOKO-HONOKO* NOT AVBL
PALI 2*          N/A     64  52  63 S9          N/A
KEALAKOMO*       N/A     79  68  69 N12G17      N/A
KAUPULEHU*     NOT AVBL
KAPAPALA*        N/A     57  52  84 VRB5        N/A
LOWER KAHUKU*  NOT AVBL
PUHE CS*       NOT AVBL
PUHO CS*       NOT AVBL
PTA KEAMUKU*     N/A     63  59  88 CALM        N/A
WAIKOLOA*      NOT AVBL
$$

HIZ027>028-261300-
BIG ISLAND OF HAWAII INTERIOR AND SUMMMITS-

CITY           SKY/WX    TMP DP  RH WIND       PRES   REMARKS
BRADSHAW FIELD   N/A    N/A N/A N/A SE17        N/A
MK VISITOR CEN   N/A     52  23  32 NE12        N/A
MAUNA KEA*       N/A     34  18  51 SE18        N/A  WCI  23
MAUNA LOA*       N/A    N/A N/A N/A MISG        N/A
MAUNA LOA 1*   NOT AVBL
PTA KIPUKA*      N/A     77  77 100 S6G13       N/A
PTA RANGE 17*    N/A    N/A N/A N/A SE17G26     N/A
PTA WEST*        N/A     61  59  94 SW3G14      N/A
NENE CABIN*    NOT AVBL
AHUMOA*        NOT AVBL
PTA PORTABLE*  NOT AVBL
PUU MALI*        N/A    N/A N/A N/A SE17G29     N/A
$$

HIC003-261300-
NORTHWEST ISLANDS-

CITY           SKY/WX    TMP DP  RH WIND       PRES   REMARKS
MIDWAY ISLAND  LGT RAIN  75  72  88 E17       30.14F
MIDWAY NOS*    NOT AVBL
FRENCH FRIGATE NOT AVBL
$$

PHZ110>124-180-261300-
BUOY REPORTS

STATION/POSITION TIME  TEMP    WIND        PRES    WAVE   SWELL
                       AIR SEA DIR/SP/G            HT/PER HT/DIR
                 (UTC) (F)     (DEG/KT/KT) (MB)    (FT/S) (FT/D)
BUOY 51001       1100   80 81   80/ 14/ 17 1015.9F
BUOY 51101       1150   78 78   80/ 14/ 17 1015.0F   6/ 9   5/100
BUOY 51100       NOT AVBL
BUOY 51002       1150   81 82   90/ 12/ 14 1013.2F   6/10   5
BUOY 51003       1150   81 82  110/ 14/ 16 1014.0F   5/ 7   3/ 90
BUOY 51004       1150   80 81   80/ 16/ 19 1014.0F   6/13   3/130
BARBERS PT BUOY  NOT AVBL
WAIMEA BAY BUOY  1104      80                N/A     3/ 8
KAILUA BAY BUOY  1111      80                N/A     5/10   2/ 60
LANAI BUOY       1115      83                N/A     3/13   2/200
BARBERS PT 2     NOT AVBL
PAUWELA MAUI     1109      80                N/A     6/10   2/ 80
HILO             1112      79                N/A     5/ 9   2/ 60
KANEOHE BAY BUOY 1106      79                N/A     4/ 6   2/ 70
HANALEI KAUAI    NOT AVBL
KAHULUI HARBOR   1100   76 80   10/  6/  7 1015.4F
HONOLULU HARBOR  1100   79 80  330/  1/  1 1016.6F
KILO NALU        NOT AVBL
HILO HARBOR      1100   73 78  200/  5/  6 1016.1F
MOKUOLOE         1100   79 82   60/  3/  4 1016.3F
NAWILIWILI       1100   78 80   40/  3/  4 1016.2F
WHOTS BUOY       NOT AVBL
BUOY 51028       NOT AVBL
$$

......................KEY........................................
  SKY/WX - SKY CONDITIONS/PRESENT WEATHER
  TMP    - TEMPERATURE IN FAHRENHEIT
  DWPT   - DEWPOINT IN FAHRENHEIT
  RH     - RELATIVE HUMIDITY IN PERCENT
  WIND   - DIRECTION AND SPEED /MPH FOR ISLANDS...KTS FOR BUOYS/
  PRES   - MEAN SEA LEVEL PRESSURE IN INCHES OF HG
  VSB    - VISIBILITY IN MILES
  HX     - HEAT INDEX
  WCI    - WIND CHILL INDEX
  VRB    - VARIABLE WIND DIRECTION
  N/A    - NOT AVAILABLE




USA.gov is the U.S. government's official web portal to all federal, state and local government web resources and services.